Погода в Чукалах-на-Вежне

Россия / Республика Мордовия     54°43′24″N   45°47′55″E
темп.,
°C
ветер,
м/с
пор.,
м/с
влажн.,
%
обл.,
%
осадки,
мм/ч
давл.,
гПа
погр.,
м
20 апреля, вт
вт2000:00+5в7136334 0.0 1026645
03:00+3в6135614 0.0 1026473
06:00+2в714635 0.0 1027649
09:00+6вюв913456 0.0 1026996
12:00+9вюв9124160 0.0 10251243
15:00+10вюв9124299 0.0 10241375
18:00+9вюв81445100 0.0 10221280
21:00+8вюв91645100 0.0 10211127
21 апреля, ср
ср2100:00+6юв101856100 0.4 1019928
03:00+5вюв112161100 3.3 1016915
06:00+4юв102079100 2.1 1016949
09:00+5ююв101878100 2.2 1015961
12:00+6ююв10177892 0.0 1015838
15:00+5ююв101781100 0.0 1015831
18:00+5ююв91786100 0.0 1015672
21:00+6ю61290100 0.1 1016773
22 апреля, чт
чт2200:00+6ю51194100 0.1 1017493
03:00+6ю3795100 0.1 1018313
06:00+6ююв4994100 0.3 1019346
09:00+8ююз6883100 0.3 1020630
12:00+12ююз596084 0.1 10201575
15:00+13юз695744 0.4 10201593
18:00+12зюз36646 0.2 1021271
21:00+8зюз11781 0.2 102210
23 апреля, пт
пт2300:00+6з11830 0.0 102310
03:00+5ююз11840 0.0 102310
06:00+6ююв22825 0.0 102432
09:00+12ююв34570 0.0 1024474
12:00+16ю33426 0.0 10231719
15:00+17ююв323880 0.0 10222211
18:00+15юв334674 0.0 102162
21:00+12юв4958100 0.0 1021224
24 апреля, сб
сб2400:00+11юв3771100 0.0 1020207
03:00+9юв377899 0.1 1019230
06:00+9вюв368159 0.0 1018259
09:00+12вюв456370 0.0 1016820
12:00+14вюв44475 0.0 10141664
15:00+15вюв544152 0.0 10122108
18:00+12вюв686093 0.0 1010751
21:00+10юв61273100 0.0 1009505